This is the latest recevied weather packets stored in our database for station/object KD4VIF. If no packets are shown the sender has not sent any weather packets the latest 10 day(s).
| Time | Temp. | Humidity | Pressure | Rain* | Wind** | Luminosity | Snow |
|---|---|---|---|---|---|---|---|
| 1777902094 | 13.33° C | 100% | 1017 hPa | 0 mm | 0 m/s | - | - |
| 1777901795 | 12.78° C | 100% | 1017 hPa | 0 mm | 0 m/s | - | - |
| 1777901498 | 12.78° C | 100% | 1017 hPa | 0 mm | 0 m/s | - | - |
| 1777901197 | 12.22° C | 100% | 1017 hPa | 0 mm | 0 m/s | - | - |
| 1777900895 | 11.67° C | 100% | 1016.9 hPa | 0 mm | 0 m/s | - | - |
| 1777899694 | 10.56° C | 100% | 1016.8 hPa | 0 mm | 0 m/s | - | - |
| 1777898494 | 10° C | 100% | 1016.9 hPa | 0 mm | 0 m/s | - | - |
| 1777897595 | 9.44° C | 100% | 1016.9 hPa | 0 mm | 0 m/s | - | - |
| 1777896096 | 8.33° C | 100% | 1016.9 hPa | 0 mm | 0 m/s | - | - |
| 1777895796 | 8.33° C | 100% | 1016.9 hPa | 0 mm | 0 m/s | - | - |
| 1777893695 | 7.22° C | 100% | 1017 hPa | 0 mm | 0 m/s | - | - |
| 1777893096 | 7.22° C | 100% | 1016.9 hPa | 0 mm | 0 m/s | - | - |
| 1777892194 | 7.22° C | 100% | 1016.8 hPa | 0 mm | 0 m/s | - | - |
| 1777891895 | 7.22° C | 100% | 1016.9 hPa | 0 mm | 0 m/s | - | - |
| 1777890994 | 7.22° C | 100% | 1016.8 hPa | 0 mm | 0 m/s | - | - |
| 1777890696 | 7.22° C | 100% | 1016.9 hPa | 0 mm | 0 m/s | - | - |
| 1777888898 | 7.22° C | 100% | 1016.9 hPa | 0 mm | 0 m/s | - | - |
| 1777888294 | 7.78° C | 100% | 1016.9 hPa | 0 mm | 0 m/s | - | - |
| 1777884694 | 8.33° C | 100% | 1016.6 hPa | 0 mm | 0 m/s | - | - |
| 1777883195 | 8.33° C | 100% | 1016.6 hPa | 0 mm | 0 m/s | - | - |
| 1777873894 | 8.33° C | 100% | 1017.1 hPa | 0 mm | 0 m/s | - | - |
| 1777869393 | 7.78° C | 100% | 1017.3 hPa | 0 mm | 0 m/s | - | - |
| 1777868495 | 8.33° C | 100% | 1017.1 hPa | 0 mm | 0 m/s | - | - |
| 1777867895 | 8.33° C | 100% | 1017.2 hPa | 0 mm | 0 m/s | - | - |
| 1777867293 | 8.33° C | 100% | 1017.1 hPa | 0 mm | 0 m/s | - | - |
* Rain latest hour (hover to see other rain measurements)
** Current wind speed in m/s (hover to see current wind gust speed)